Find Starlink 35070

NORAD ID: 65680 Int'l Des: 2025-212 Owner: SPXS Country: US Constellation: starlink operational
LEOCIRCULAR

Current View

Loading 3D Globe...

About Starlink 35070

Starlink 35070 (NORAD 65680) is a starlink constellation satellite (v2 mini) launched Sep 21, 2025 by SPXS of US. It operates in LEO, CIRCULAR orbit with a mass of 575.00 kg.

Upcoming Passes

Passes for default location (London). Set your location on the main map for personalized predictions.

Altitude History

Loading altitude history...

Two-Line Element Set

1 65680U 25212E 26262.45624574 .00011838 00000-0 39257-3 0 9992
2 65680 53.1602 164.6833 0000164 137.0599 223.0415 15.31704350 56928
Epoch: Sep 19, 2026 • Age: 48 hours

Current Status

Altitude 470.7 km
Apogee / Perigee N/A
Velocity 7.63 km/s
Sub-Earth Point 14.97°N, 164.17°E
Launch Date Sep 21, 2025
Age 0.9 years
Type internet

Technical Details

Classification Payload
Mass 575.00 kg
Dry Mass 530.00 kg
Length 0.30 m
Span 29.00 m
Shape ? Box + pan
Manufacturer SPXS
Bus Type Starlink V2MO
Phase Status In Orbit
Owner/State SPXS/US

Most Searched